Location: Unspecified
(58.7730°N, 5.8460°E)
Time: 09:58:23
(UTC+01:00)

CZ-3 Stage 3 - Visible Passes

Search period start: 25 February 2017 00:00
Search period end: 07 March 2017 00:00
Orbit: 410 x 34791 km, 30.6° (Epoch: 24 February)

Date Brightness Start Highest point End Pass type
(mag) Time Alt. Az. Time Alt. Az. Time Alt. Az.
25 Feb 8.8 03:45:43 10° W 06:02:03 32° W 11:20:09 10° W visible
25 Feb 8.1 23:51:13 10° SW 03:08:28 55° SSW 08:52:41 10° SSW visible
26 Feb 7.9 20:20:39 10° SSE 02:07:37 49° SE 05:17:07 10° SE visible
27 Feb 8.9 18:39:53 10° ENE 22:58:37 22° E 01:03:55 10° E visible
28 Feb 8.8 03:36:13 10° W 05:51:03 32° W 11:07:11 10° W visible
28 Feb 8.1 23:42:00 10° SW 02:55:01 55° SSW 08:43:02 10° SSW visible
01 Mar 7.8 20:11:03 10° SSE 01:55:20 49° SE 05:07:44 10° SE visible
02 Mar 8.9 18:27:45 10° ENE 22:47:47 22° E 00:53:34 10° E visible
03 Mar 8.8 03:26:42 10° W 05:40:00 32° W 10:54:07 10° W visible
03 Mar 8.1 23:32:47 10° SW 02:41:34 56° SSW 08:33:19 10° SSW visible
04 Mar 7.8 20:01:28 10° SSE 01:43:03 48° SE 04:58:18 10° SE visible
05 Mar 8.8 18:15:44 10° ENE 22:36:58 21° E 00:43:08 10° E visible
06 Mar 8.8 03:17:12 10° W 05:28:56 33° W 10:40:56 10° W visible
